Weather History for KGZH - December, 2013

Change the Weather History Date:

Saturday, December 21, 2013

  Actual Average (WUND) Record (WUND)
Temperature  
Mean Temperature 72 °F -  
Max Temperature 78 °F - - (-1)
Min Temperature 66 °F - - (-1)
Cooling Degree Days 7    
Growing Degree Days 22 (Base 50)    
Moisture  
Dew Point 68 °F    
Average Humidity 85    
Maximum Humidity 94    
Minimum Humidity 71    
Precipitation  
Precipitation 0.04 in - - ()
Sea Level Pressure  
Sea Level Pressure 29.94 in    
Wind  
Wind Speed 13 mph (South)    
Max Wind Speed 26 mph    
Max Gust Speed 32 mph    
Visibility 8 miles    
Events Rain    
Averages and records for this station are not official NWS values.
T = Trace of Precipitation, MM = Missing Value Source: NWS Daily Summary

Daily Weather History Graph

Daily Weather History Graph

Search for Another Location

Airport or City:

Trip Planner

Search our weather history database for the weather conditions in past years. The results will help you decide how hot, cold, wet, or windy it might be!

Date:

Astronomy

Dec. 21, 2013 Rise Set
Actual Time 6:43 AM CST 4:49 PM CST
Civil Twilight 6:16 AM CST 5:16 PM CST
Nautical Twilight 5:46 AM CST 5:46 PM CST
Astronomical Twilight 5:16 AM CST 6:16 PM CST
Moon 8:51 PM CST (12/21) 9:21 AM CST (12/21)
Length of Visible Light 10h 59m
Length of Day
10h 06m
Waning Gibbous, 84% of the Moon is Illuminated
Dec 21
Waning Gibbous
Dec 25
Last Quarter
Jan 1
New
Jan 7
First Quarter
Jan 15
Full

Hourly Weather History & Observations

Time (CST) Temp. Dew Point Humidity Pressure Visibility Wind Dir Wind Speed Gust Speed Precip Events Conditions
12:53 AM 66.0 °F 64.0 °F 93% 30.03 in 5.0 mi SSE 6.9 mph - N/A   Overcast
1:42 AM 66.0 °F 64.0 °F 93% 30.01 in 2.5 mi SSE 9.2 mph - N/A   Overcast
1:50 AM 66.2 °F 64.4 °F 94% 30.01 in 3.0 mi SSE 6.9 mph - N/A   Overcast
1:53 AM 66.0 °F 64.0 °F 93% 30.00 in 3.0 mi SSE 6.9 mph - N/A   Overcast
2:53 AM 66.9 °F 64.9 °F 93% 29.99 in 7.0 mi SSE 10.4 mph - N/A   Overcast
3:53 AM 68.0 °F 66.0 °F 93% 29.99 in 7.0 mi SSE 8.1 mph - N/A   Overcast
4:50 AM 69.8 °F 66.2 °F 88% 29.96 in 9.0 mi SSE 11.5 mph - N/A   Overcast
4:53 AM 69.1 °F 66.0 °F 90% 29.96 in 9.0 mi SSE 11.5 mph - N/A   Overcast
5:12 AM 69.1 °F 66.0 °F 90% 29.96 in 7.0 mi SSE 12.7 mph - 0.00 in Rain Light Rain
5:53 AM 70.0 °F 66.9 °F 90% 29.96 in 10.0 mi SSE 11.5 mph - 0.00 in   Overcast
6:14 AM 70.0 °F 66.9 °F 90% 29.96 in 8.0 mi SSE 11.5 mph 20.7 mph 0.00 in Rain Light Rain
6:53 AM 71.1 °F 68.0 °F 90% 29.96 in 10.0 mi South 13.8 mph 21.9 mph 0.00 in   Overcast
7:05 AM 71.1 °F 68.0 °F 90% 29.96 in 8.0 mi SSE 12.7 mph - 0.00 in Rain Light Rain
7:53 AM 71.1 °F 68.0 °F 90% 29.95 in 9.0 mi SSE 12.7 mph - 0.00 in   Overcast
8:19 AM 71.1 °F 68.0 °F 90% 29.96 in 2.5 mi SSE 16.1 mph 23.0 mph 0.00 in Rain Light Rain
8:48 AM 71.6 °F 69.8 °F 94% 29.97 in 8.0 mi South 18.4 mph 28.8 mph 0.03 in Rain Light Rain
8:53 AM 73.0 °F 69.1 °F 87% 29.96 in 10.0 mi South 17.3 mph 28.8 mph 0.03 in   Overcast
9:01 AM 73.0 °F 69.1 °F 87% 29.97 in 10.0 mi South 17.3 mph 26.5 mph N/A   Overcast
9:26 AM 73.9 °F 69.1 °F 85% 29.96 in 9.0 mi South 18.4 mph 25.3 mph N/A   Overcast
9:53 AM 73.9 °F 69.1 °F 85% 29.95 in 10.0 mi South 18.4 mph 26.5 mph N/A   Overcast
10:53 AM 75.9 °F 69.1 °F 79% 29.94 in 10.0 mi South 18.4 mph 26.5 mph 0.00 in   Overcast
11:53 AM 77.0 °F 69.1 °F 76% 29.92 in 10.0 mi South 16.1 mph 23.0 mph N/A   Overcast
12:53 PM 78.1 °F 68.0 °F 71% 29.89 in 10.0 mi South 26.5 mph 32.2 mph N/A   Overcast
1:18 PM 78.1 °F 68.0 °F 71% 29.89 in 10.0 mi South 24.2 mph 31.1 mph 0.00 in Rain Light Rain
1:53 PM 78.1 °F 68.0 °F 71% 29.88 in 10.0 mi South 24.2 mph 31.1 mph 0.00 in   Overcast
2:53 PM 77.0 °F 68.0 °F 74% 29.88 in 10.0 mi South 23.0 mph 29.9 mph 0.00 in   Overcast
3:53 PM 77.0 °F 68.0 °F 74% 29.90 in 10.0 mi South 18.4 mph 24.2 mph N/A   Overcast
4:53 PM 75.9 °F 68.0 °F 76% 29.90 in 10.0 mi South 13.8 mph 23.0 mph N/A   Overcast
5:53 PM 75.9 °F 69.1 °F 79% 29.91 in 10.0 mi South 18.4 mph 25.3 mph 0.00 in   Overcast
6:53 PM 75.0 °F 69.1 °F 82% 29.91 in 10.0 mi South 18.4 mph 25.3 mph N/A   Overcast
7:53 PM 75.0 °F 69.1 °F 82% 29.91 in 10.0 mi South 17.3 mph 26.5 mph N/A   Overcast
8:53 PM 75.0 °F 69.1 °F 82% 29.92 in 10.0 mi South 16.1 mph 26.5 mph N/A   Overcast
9:53 PM 75.0 °F 69.1 °F 82% 29.90 in 10.0 mi South 15.0 mph 28.8 mph N/A   Overcast
10:26 PM 75.0 °F 69.1 °F 82% 29.91 in 10.0 mi South 17.3 mph - N/A   Overcast
10:46 PM 75.0 °F 69.1 °F 82% 29.92 in 10.0 mi South 17.3 mph 26.5 mph N/A   Overcast
10:53 PM 73.9 °F 69.1 °F 85% 29.92 in 10.0 mi South 16.1 mph 26.5 mph 0.00 in Rain Light Rain
11:53 PM 73.9 °F 70.0 °F 87% 29.91 in 9.0 mi South 15.0 mph 24.2 mph 0.01 in Rain Light Rain